sat.trackr.live / text

‹ back to catalog

SES-22

NORAD 52933 · 2022-071A

PAYLOAD ACTIVE UNKNOWN

§ Identity

Operator
Country
SES
Launch date
2022-06-29
Launch site
AFETR
Launch vehicle
Mass (kg)
RCS (m²)

Purposes: comms

External: N2YO · Heavens-Above · Gunter

§ Orbital elements

Epoch: 2026-09-20T04:32:22.254144Z

Period
1,436.10 min
Inclination
0.0327°
Eccentricity
0.0001119
Mean motion
1.00271460 rev/d
Perigee alt
35,782.0 km
Apogee alt
35,791.4 km
Semi-major
42,164.8 km
B*
0.0000e+0
RAAN
268.0005°
Arg perigee
244.7190°
Mean anomaly
135.4633°
Rev number
847

§ Raw data

SES-221 52933U 22071A   26263.18914646  .00000100  00000+0  00000+0 0  99912 52933   0.0327 268.0005 0001119 244.7190 135.4633  1.00271460  8471

JSON: /api/v1/satellites/52933 · /tle

For live sub-satellite position, see the globe view (requires WebGL).

§ Visibility from observer

Set your observer location to see the next 7 days of passes ≥ 10°. The values pass through the URL so the page stays shareable.

No JS? Fill the form by hand. The geolocation button needs JavaScript.